,,,PA_Meas_PMT16A,,PR_Meas_QMR101_102,,RH_Meas_QMH101,,SR_Meas_QMS101,,TA_Meas_QMH101,,GenWind,,GenWind,
date,time,status,PA,status,PR,status,RH,status,SR,status,TA,status,DirAvg,status,SpdAvg,
2011-05-20, 00:00:04,VALID,1005.29,VALID,0,INVALID,163.693,VALID,0,VALID,24.5758,VALID,354,VALID,0.7,
2011-05-20, 00:01:04,VALID,1005.28,VALID,0,INVALID,163.701,VALID,0,VALID,24.599,VALID,353,VALID,0.625,
2011-05-20, 00:02:04,VALID,1005.29,VALID,0,INVALID,163.693,VALID,0,VALID,24.5388,VALID,352,VALID,0.598047,
2011-05-20, 00:03:04,VALID,1005.25,VALID,0,INVALID,163.708,VALID,0,VALID,24.5193,VALID,352,VALID,0.453906,
2011-05-20, 00:04:04,VALID,1005.25,VALID,0,INVALID,163.678,VALID,0,VALID,24.5212,VALID,352,VALID,0.515625,
2011-05-20, 00:05:04,VALID,1005.28,VALID,0,INVALID,163.685,VALID,0,VALID,24.5406,VALID,29,VALID,0.607422,
2011-05-20, 00:06:04,VALID,1005.24,VALID,0,INVALID,163.716,VALID,0,VALID,24.5388,VALID,29,VALID,0.448828,
2011-05-20, 00:07:04,VALID,1005.22,VALID,0,INVALID,163.693,VALID,0,VALID,24.5193,VALID,29,VALID,0.415625,
2011-05-20, 00:08:04,VALID,1005.21,VALID,0,INVALID,163.685,VALID,0,VALID,24.5193,VALID,29,VALID,0,
2011-05-20, 00:09:04,VALID,1005.19,VALID,0,INVALID,163.693,VALID,0,VALID,24.5193,VALID,29,VALID,0,
2011-05-20, 00:10:04,VALID,1005.18,VALID,0,INVALID,163.693,VALID,0,VALID,24.5388,VALID,29,VALID,0.00117188,
2011-05-20, 00:11:04,VALID,1005.15,VALID,0,INVALID,163.685,VALID,0,VALID,24.5193,VALID,29,VALID,0.399219,
2011-05-20, 00:12:04,VALID,1005.15,VALID,0,INVALID,163.685,VALID,0,VALID,24.4998,VALID,29,VALID,0.737109,
2011-05-20, 00:13:04,VALID,1005.1,VALID,0,INVALID,163.701,VALID,0,VALID,24.4804,VALID,29,VALID,0.539453,
2011-05-20, 00:14:04,VALID,1005.12,VALID,0,INVALID,163.701,VALID,0,VALID,24.4998,VALID,29,VALID,0.341016,
2011-05-20, 00:15:05,VALID,1005.08,VALID,0,INVALID,163.678,VALID,0,VALID,24.5212,VALID,28,VALID,0.353906,
2011-05-20, 00:16:05,VALID,1005.07,VALID,0,INVALID,163.685,VALID,0,VALID,24.5212,VALID,24,VALID,0.433594,
2011-05-20, 00:17:05,VALID,1005.07,VALID,0,INVALID,163.693,VALID,0,VALID,24.4804,VALID,20,VALID,0.503125,
2011-05-20, 00:18:05,VALID,1005.04,VALID,0,INVALID,163.693,VALID,0,VALID,24.4822,VALID,6,VALID,0.437891,
2011-05-20, 00:19:05,VALID,1005.02,VALID,0,INVALID,163.701,VALID,0,VALID,24.4414,VALID,6,VALID,0.398047,
2011-05-20, 00:20:05,VALID,1005,VALID,0,INVALID,163.678,VALID,0,VALID,24.4822,VALID,6,VALID,0.494922,
2011-05-20, 00:21:05,VALID,1004.97,VALID,0,INVALID,163.701,VALID,0,VALID,24.4804,VALID,6,VALID,0.627344,
2011-05-20, 00:22:05,VALID,1004.99,VALID,0,INVALID,163.701,VALID,0,VALID,24.5193,VALID,6,VALID,0.593359,
2011-05-20, 00:23:05,VALID,1004.98,VALID,0,INVALID,163.685,VALID,0,VALID,24.5582,VALID,6,VALID,0.541797,
2011-05-20, 00:24:05,VALID,1005,VALID,0,INVALID,163.685,VALID,0,VALID,24.5796,VALID,6,VALID,0.373047,
2011-05-20, 00:25:05,VALID,1004.99,VALID,0,INVALID,163.678,VALID,0,VALID,24.5582,VALID,6,VALID,0.430078,
2011-05-20, 00:26:05,VALID,1005.01,VALID,0,INVALID,163.685,VALID,0,VALID,24.5777,VALID,14,VALID,0.510156,
2011-05-20, 00:27:05,VALID,1004.98,VALID,0,INVALID,163.685,VALID,0,VALID,24.5972,VALID,14,VALID,0.371875,
2011-05-20, 00:28:05,VALID,1004.97,VALID,0,INVALID,163.685,VALID,0,VALID,24.6185,VALID,14,VALID,0.328125,
2011-05-20, 00:29:05,VALID,1004.99,VALID,0,INVALID,163.67,VALID,0,VALID,24.6185,VALID,14,VALID,0.0347656,
2011-05-20, 00:30:05,VALID,1004.96,VALID,0,INVALID,163.693,VALID,0,VALID,24.6166,VALID,25,VALID,0.204297,
2011-05-20, 00:31:05,VALID,1004.94,VALID,0,INVALID,163.678,VALID,0,VALID,24.6185,VALID,25,VALID,0.130859,
2011-05-20, 00:32:05,VALID,1004.94,VALID,0,INVALID,163.67,VALID,0,VALID,24.5972,VALID,22,VALID,0.448047,
2011-05-20, 00:33:05,VALID,1004.93,VALID,0,INVALID,163.693,VALID,0,VALID,24.6185,VALID,22,VALID,0.208203,
2011-05-20, 00:34:05,VALID,1004.9,VALID,0,INVALID,163.678,VALID,0,VALID,24.5972,VALID,22,VALID,0.166406,
2011-05-20, 00:35:05,VALID,1004.91,VALID,0,INVALID,163.693,VALID,0,VALID,24.6185,VALID,22,VALID,0.223047,
2011-05-20, 00:36:05,VALID,1004.88,VALID,0,INVALID,163.685,VALID,0,VALID,24.6166,VALID,26,VALID,0.25,
2011-05-20, 00:37:05,VALID,1004.9,VALID,0,INVALID,163.716,VALID,0,VALID,24.5972,VALID,26,VALID,0,
2011-05-20, 00:38:05,VALID,1004.88,VALID,0,INVALID,163.685,VALID,0,VALID,24.5972,VALID,26,VALID,0,
2011-05-20, 00:39:05,VALID,1004.84,VALID,0,INVALID,163.67,VALID,0,VALID,24.6166,VALID,26,VALID,0,
2011-05-20, 00:40:05,VALID,1004.86,VALID,0,INVALID,163.685,VALID,0,VALID,24.6945,VALID,87,VALID,0.444922,
2011-05-20, 00:41:05,VALID,1004.81,VALID,0,INVALID,163.693,VALID,0,VALID,24.7335,VALID,87,VALID,0.357031,
2011-05-20, 00:42:05,VALID,1004.79,VALID,0,INVALID,163.678,VALID,0,VALID,24.7548,VALID,87,VALID,0.391797,
2011-05-20, 00:43:05,VALID,1004.77,VALID,0,INVALID,163.678,VALID,0,VALID,24.7335,VALID,87,VALID,0.20625,
2011-05-20, 00:44:05,VALID,1004.76,VALID,0,INVALID,163.662,VALID,0,VALID,24.7335,VALID,87,VALID,0.0417969,
2011-05-20, 00:45:05,VALID,1004.71,VALID,0,INVALID,163.685,VALID,0.100563,VALID,24.7121,VALID,87,VALID,0,
2011-05-20, 00:46:05,VALID,1004.68,VALID,0,INVALID,163.685,VALID,0,VALID,24.7159,VALID,87,VALID,0,
2011-05-20, 00:47:05,VALID,1004.66,VALID,0,INVALID,163.685,VALID,0,VALID,24.6537,VALID,87,VALID,0.0871094,
2011-05-20, 00:48:05,VALID,1004.67,VALID,0,INVALID,163.685,VALID,0.100563,VALID,24.6556,VALID,87,VALID,0,
2011-05-20, 00:49:05,VALID,1004.64,VALID,0,INVALID,163.716,VALID,0.100563,VALID,24.6166,VALID,87,VALID,0.365234,
2011-05-20, 00:50:05,VALID,1004.65,VALID,0,INVALID,163.693,VALID,0.100563,VALID,24.638,VALID,87,VALID,0.208984,
2011-05-20, 00:51:05,VALID,1004.65,VALID,0,INVALID,163.685,VALID,0.100563,VALID,24.6166,VALID,87,VALID,0.212109,
2011-05-20, 00:52:05,VALID,1004.63,VALID,0,INVALID,163.701,VALID,0.100563,VALID,24.5758,VALID,87,VALID,0,
2011-05-20, 00:53:05,VALID,1004.62,VALID,0,INVALID,163.701,VALID,0.100563,VALID,24.5777,VALID,87,VALID,0,
2011-05-20, 00:54:05,VALID,1004.61,VALID,0,INVALID,163.693,VALID,0.100563,VALID,24.5777,VALID,87,VALID,0,
2011-05-20, 00:55:05,VALID,1004.64,VALID,0,INVALID,163.685,VALID,0,VALID,24.5582,VALID,87,VALID,0,
2011-05-20, 00:56:05,VALID,1004.63,VALID,0,INVALID,163.693,VALID,0.100563,VALID,24.5174,VALID,87,VALID,0,
2011-05-20, 00:57:05,VALID,1004.58,VALID,0,INVALID,163.723,VALID,0.100563,VALID,24.5193,VALID,87,VALID,0,
2011-05-20, 00:58:05,VALID,1004.54,VALID,0,INVALID,163.701,VALID,0,VALID,24.5212,VALID,87,VALID,0.298438,
2011-05-20, 00:59:05,VALID,1004.56,VALID,0,INVALID,163.723,VALID,0,VALID,24.4998,VALID,87,VALID,0.38125,
2011-05-20, 01:00:05,VALID,1004.54,VALID,0,INVALID,163.693,VALID,0.100563,VALID,24.4998,VALID,87,VALID,0.352344,
2011-05-20, 01:01:05,VALID,1004.51,VALID,0,INVALID,163.693,VALID,0.100563,VALID,24.4396,VALID,87,VALID,0.341016,
2011-05-20, 01:02:05,VALID,1004.49,VALID,0,INVALID,163.708,VALID,0.100563,VALID,24.4609,VALID,87,VALID,0.265625,
2011-05-20, 01:03:05,VALID,1004.46,VALID,0,INVALID,163.716,VALID,0.100563,VALID,24.4998,VALID,87,VALID,0.2,
2011-05-20, 01:04:05,VALID,1004.43,VALID,0,INVALID,163.701,VALID,0.100563,VALID,24.5601,VALID,87,VALID,0.177734,
2011-05-20, 01:05:05,VALID,1004.42,VALID,0,INVALID,163.708,VALID,0.100563,VALID,24.5582,VALID,87,VALID,0,
2011-05-20, 01:06:05,VALID,1004.43,VALID,0,INVALID,163.723,VALID,0.100563,VALID,24.5388,VALID,87,VALID,0.0269531,
2011-05-20, 01:07:05,VALID,1004.39,VALID,0,INVALID,163.716,VALID,0,VALID,24.498,VALID,87,VALID,0.391797,
2011-05-20, 01:08:05,VALID,1004.37,VALID,0,INVALID,163.693,VALID,0,VALID,24.4785,VALID,87,VALID,0.237891,
2011-05-20, 01:09:05,VALID,1004.32,VALID,0,INVALID,163.708,VALID,0.100563,VALID,24.459,VALID,87,VALID,0,
2011-05-20, 01:10:05,VALID,1004.26,VALID,0,INVALID,163.685,VALID,0.100563,VALID,24.4998,VALID,87,VALID,0.00078125,
2011-05-20, 01:11:05,VALID,1004.25,VALID,0,INVALID,163.708,VALID,0,VALID,24.4998,VALID,87,VALID,0.248437,
2011-05-20, 01:12:05,VALID,1004.2,VALID,0,INVALID,163.701,VALID,0.100563,VALID,24.4998,VALID,87,VALID,0.264062,
2011-05-20, 01:13:05,VALID,1004.19,VALID,0,INVALID,163.678,VALID,0,VALID,24.5193,VALID,354,VALID,0.566406,
2011-05-20, 01:14:05,VALID,1004.18,VALID,0,INVALID,163.678,VALID,0.100563,VALID,24.5388,VALID,354,VALID,0.430469,
2011-05-20, 01:15:05,VALID,1004.16,VALID,0,INVALID,163.693,VALID,0.100563,VALID,24.4804,VALID,354,VALID,0.615625,
2011-05-20, 01:16:05,VALID,1004.18,VALID,0,INVALID,163.716,VALID,0.100563,VALID,24.4396,VALID,354,VALID,0.483984,
2011-05-20, 01:17:05,VALID,1004.21,VALID,0,INVALID,163.67,VALID,0,VALID,24.4201,VALID,354,VALID,0.616406,
2011-05-20, 01:18:05,VALID,1004.22,VALID,0,INVALID,163.685,VALID,0,VALID,24.4006,VALID,354,VALID,0.549609,
2011-05-20, 01:19:05,VALID,1004.25,VALID,0,INVALID,163.739,VALID,0.100563,VALID,24.3812,VALID,354,VALID,0.587891,
2011-05-20, 01:20:05,VALID,1004.25,VALID,0,INVALID,163.731,VALID,0.100563,VALID,24.422,VALID,354,VALID,0.597656,
2011-05-20, 01:21:05,VALID,1004.26,VALID,0,INVALID,163.716,VALID,0,VALID,24.4025,VALID,354,VALID,0.662109,
2011-05-20, 01:22:05,VALID,1004.26,VALID,0,INVALID,163.716,VALID,0,VALID,24.4238,VALID,354,VALID,0.610547,
2011-05-20, 01:23:05,VALID,1004.26,VALID,0,INVALID,163.708,VALID,0,VALID,24.383,VALID,353,VALID,0.478516,
2011-05-20, 01:24:05,VALID,1004.24,VALID,0,INVALID,163.678,VALID,0,VALID,24.3636,VALID,353,VALID,0.545703,
2011-05-20, 01:25:05,VALID,1004.25,VALID,0,INVALID,163.739,VALID,0.100563,VALID,24.3422,VALID,353,VALID,0.484375,
2011-05-20, 01:26:05,VALID,1004.24,VALID,0,INVALID,163.731,VALID,0,VALID,24.383,VALID,359,VALID,0.628516,
2011-05-20, 01:27:05,VALID,1004.24,VALID,0,INVALID,163.693,VALID,0,VALID,24.4025,VALID,2,VALID,0.446875,
2011-05-20, 01:28:05,VALID,1004.24,VALID,0,INVALID,163.708,VALID,0,VALID,24.422,VALID,2,VALID,0.486719,
2011-05-20, 01:29:05,VALID,1004.26,VALID,0,INVALID,163.716,VALID,0.100563,VALID,24.4414,VALID,1,VALID,0.582422,
2011-05-20, 01:30:05,VALID,1004.23,VALID,0,INVALID,163.685,VALID,0,VALID,24.4414,VALID,1,VALID,0.490234,
2011-05-20, 01:31:05,VALID,1004.24,VALID,0,INVALID,163.701,VALID,0,VALID,24.4609,VALID,1,VALID,0.502344,
2011-05-20, 01:32:05,VALID,1004.22,VALID,0,INVALID,163.693,VALID,0,VALID,24.4609,VALID,1,VALID,0.394922,
2011-05-20, 01:33:05,VALID,1004.23,VALID,0,INVALID,163.731,VALID,0.100563,VALID,24.4609,VALID,1,VALID,0.323438,
2011-05-20, 01:34:05,VALID,1004.22,VALID,0,INVALID,163.708,VALID,0.100563,VALID,24.4396,VALID,1,VALID,0.334375,
2011-05-20, 01:35:05,VALID,1004.23,VALID,0,INVALID,163.701,VALID,0,VALID,24.4414,VALID,1,VALID,0.189063,
2011-05-20, 01:36:05,VALID,1004.19,VALID,0,INVALID,163.693,VALID,0.100563,VALID,24.4414,VALID,1,VALID,0.0195313,
2011-05-20, 01:37:05,VALID,1004.2,VALID,0,INVALID,163.708,VALID,0.100563,VALID,24.4609,VALID,1,VALID,0.238672,
2011-05-20, 01:38:05,VALID,1004.18,VALID,0,INVALID,163.716,VALID,0,VALID,24.4414,VALID,1,VALID,0.283984,
2011-05-20, 01:39:05,VALID,1004.18,VALID,0,INVALID,163.685,VALID,0.100563,VALID,24.4414,VALID,1,VALID,0.433594,
2011-05-20, 01:40:05,VALID,1004.19,VALID,0,INVALID,163.701,VALID,0,VALID,24.422,VALID,1,VALID,0.358984,
2011-05-20, 01:41:05,VALID,1004.18,VALID,0,INVALID,163.685,VALID,0,VALID,24.422,VALID,1,VALID,0.315625,
2011-05-20, 01:42:05,VALID,1004.17,VALID,0,INVALID,163.701,VALID,0,VALID,24.4804,VALID,1,VALID,0.261719,
2011-05-20, 01:43:05,VALID,1004.19,VALID,0,INVALID,163.708,VALID,0,VALID,24.4609,VALID,1,VALID,0.015625,
2011-05-20, 01:44:05,VALID,1004.17,VALID,0,INVALID,163.723,VALID,0,VALID,24.4414,VALID,1,VALID,0.132813,
2011-05-20, 01:45:05,VALID,1004.16,VALID,0,INVALID,163.678,VALID,0.100563,VALID,24.4006,VALID,1,VALID,0.220313,
2011-05-20, 01:46:05,VALID,1004.14,VALID,0,INVALID,163.701,VALID,0,VALID,24.4025,VALID,1,VALID,0.2375,
2011-05-20, 01:47:05,VALID,1004.15,VALID,0,INVALID,163.708,VALID,0,VALID,24.3617,VALID,1,VALID,0.0757812,
2011-05-20, 01:48:05,VALID,1004.17,VALID,0,INVALID,163.701,VALID,0,VALID,24.3636,VALID,1,VALID,0.349219,
2011-05-20, 01:49:05,VALID,1004.13,VALID,0,INVALID,163.701,VALID,0,VALID,24.383,VALID,1,VALID,0.397266,
2011-05-20, 01:50:05,VALID,1004.16,VALID,0,INVALID,163.708,VALID,0,VALID,24.383,VALID,1,VALID,0.234375,
2011-05-20, 01:51:05,VALID,1004.13,VALID,0,INVALID,163.701,VALID,0,VALID,24.3617,VALID,1,VALID,0,
2011-05-20, 01:52:05,VALID,1004.13,VALID,0,INVALID,163.685,VALID,0,VALID,24.383,VALID,1,VALID,0.0902344,
2011-05-20, 01:53:05,VALID,1004.13,VALID,0,INVALID,163.685,VALID,0,VALID,24.383,VALID,1,VALID,0.0742188,
2011-05-20, 01:54:05,VALID,1004.12,VALID,0,INVALID,163.731,VALID,0,VALID,24.383,VALID,1,VALID,0.00195313,
2011-05-20, 01:55:05,VALID,1004.06,VALID,0,INVALID,163.693,VALID,0,VALID,24.4025,VALID,1,VALID,0,
2011-05-20, 01:56:05,VALID,1004.09,VALID,0,INVALID,163.693,VALID,0,VALID,24.4025,VALID,1,VALID,0,
2011-05-20, 01:57:05,VALID,1004.05,VALID,0,INVALID,163.701,VALID,0.100563,VALID,24.422,VALID,1,VALID,0.00429688,
2011-05-20, 01:58:05,VALID,1004.01,VALID,0,INVALID,163.716,VALID,0,VALID,24.4201,VALID,1,VALID,0.211328,
2011-05-20, 01:59:05,VALID,1003.98,VALID,0,INVALID,163.723,VALID,0,VALID,24.422,VALID,1,VALID,0.252734,
2011-05-20, 02:00:05,VALID,1004,VALID,0,INVALID,163.708,VALID,0.100563,VALID,24.4414,VALID,1,VALID,0.171875,
2011-05-20, 02:01:05,VALID,1003.97,VALID,0,INVALID,163.678,VALID,0,VALID,24.4804,VALID,1,VALID,0.180469,
2011-05-20, 02:02:05,VALID,1003.98,VALID,0,INVALID,163.701,VALID,0,VALID,24.4609,VALID,1,VALID,0,
2011-05-20, 02:03:05,VALID,1003.96,VALID,0,INVALID,163.701,VALID,0,VALID,24.4609,VALID,1,VALID,0,
2011-05-20, 02:04:05,VALID,1003.98,VALID,0,INVALID,163.716,VALID,0,VALID,24.3812,VALID,1,VALID,0.394922,
2011-05-20, 02:05:05,VALID,1003.95,VALID,0,INVALID,163.708,VALID,0,VALID,24.3636,VALID,1,VALID,0.480859,
2011-05-20, 02:06:05,VALID,1003.91,VALID,0,INVALID,163.708,VALID,0,VALID,24.3228,VALID,1,VALID,0.381641,
2011-05-20, 02:07:05,VALID,1003.9,VALID,0,INVALID,163.693,VALID,0,VALID,24.3246,VALID,1,VALID,0.292969,
2011-05-20, 02:08:05,VALID,1003.88,VALID,0,INVALID,163.731,VALID,0.100563,VALID,24.3246,VALID,1,VALID,0.359766,
2011-05-20, 02:09:05,VALID,1003.86,VALID,0,INVALID,163.701,VALID,0,VALID,24.3265,VALID,1,VALID,0.408984,
2011-05-20, 02:10:05,VALID,1003.88,VALID,0,INVALID,163.693,VALID,0,VALID,24.3052,VALID,1,VALID,0.517187,
2011-05-20, 02:11:05,VALID,1003.87,VALID,0,INVALID,163.708,VALID,0,VALID,24.2449,VALID,1,VALID,0.451172,
2011-05-20, 02:12:05,VALID,1003.9,VALID,0,INVALID,163.723,VALID,0,VALID,24.2468,VALID,1,VALID,0.485156,
2011-05-20, 02:13:05,VALID,1003.84,VALID,0,INVALID,163.731,VALID,0,VALID,24.2273,VALID,1,VALID,0.439063,
2011-05-20, 02:14:05,VALID,1003.84,VALID,0,INVALID,163.716,VALID,0.100563,VALID,24.2255,VALID,1,VALID,0.278906,
2011-05-20, 02:15:05,VALID,1003.83,VALID,0,INVALID,163.723,VALID,0,VALID,24.2255,VALID,1,VALID,0.339844,
2011-05-20, 02:16:05,VALID,1003.83,VALID,0,INVALID,163.731,VALID,0,VALID,24.2857,VALID,1,VALID,0.458984,
2011-05-20, 02:17:05,VALID,1003.84,VALID,0,INVALID,163.739,VALID,0.100563,VALID,24.2857,VALID,1,VALID,0.487891,
2011-05-20, 02:18:05,VALID,1003.84,VALID,0,INVALID,163.693,VALID,0,VALID,24.3052,VALID,1,VALID,0.547656,
2011-05-20, 02:19:05,VALID,1003.88,VALID,0,INVALID,163.739,VALID,0.100563,VALID,24.3033,VALID,1,VALID,0.420312,
2011-05-20, 02:20:05,VALID,1003.84,VALID,0,INVALID,163.716,VALID,0,VALID,24.3441,VALID,1,VALID,0.215234,
2011-05-20, 02:21:05,VALID,1003.88,VALID,0,INVALID,163.685,VALID,0,VALID,24.3246,VALID,1,VALID,0.328125,
2011-05-20, 02:22:05,VALID,1003.86,VALID,0,INVALID,163.701,VALID,0,VALID,24.3441,VALID,1,VALID,0.0328125,
2011-05-20, 02:23:05,VALID,1003.88,VALID,0,INVALID,163.716,VALID,0,VALID,24.3441,VALID,1,VALID,0,
2011-05-20, 02:24:05,VALID,1003.86,VALID,0,INVALID,163.708,VALID,0,VALID,24.3441,VALID,1,VALID,0,
2011-05-20, 02:25:05,VALID,1003.86,VALID,0,INVALID,163.701,VALID,0,VALID,24.3636,VALID,1,VALID,0,
2011-05-20, 02:26:05,VALID,1003.84,VALID,0,INVALID,163.701,VALID,0,VALID,24.422,VALID,1,VALID,0,
2011-05-20, 02:27:05,VALID,1003.83,VALID,0,INVALID,163.701,VALID,0,VALID,24.4025,VALID,1,VALID,0,
2011-05-20, 02:28:05,VALID,1003.85,VALID,0,INVALID,163.723,VALID,0.100563,VALID,24.4006,VALID,1,VALID,0.304688,
2011-05-20, 02:29:05,VALID,1003.85,VALID,0,INVALID,163.693,VALID,0,VALID,24.4025,VALID,1,VALID,0.345313,
2011-05-20, 02:30:05,VALID,1003.84,VALID,0,INVALID,163.701,VALID,0,VALID,24.4025,VALID,1,VALID,0.368359,
2011-05-20, 02:31:05,VALID,1003.85,VALID,0,INVALID,163.708,VALID,0,VALID,24.3617,VALID,1,VALID,0.45625,
2011-05-20, 02:32:05,VALID,1003.84,VALID,0,INVALID,163.701,VALID,0.100563,VALID,24.3636,VALID,1,VALID,0.568359,
2011-05-20, 02:33:05,VALID,1003.83,VALID,0,INVALID,163.723,VALID,0.100563,VALID,24.3228,VALID,1,VALID,0.530859,
2011-05-20, 02:34:05,VALID,1003.81,VALID,0,INVALID,163.746,VALID,0.100563,VALID,24.3636,VALID,1,VALID,0.394922,
2011-05-20, 02:35:05,VALID,1003.78,VALID,0,INVALID,163.701,VALID,0,VALID,24.3422,VALID,1,VALID,0.533594,
2011-05-20, 02:36:05,VALID,1003.77,VALID,0,INVALID,163.723,VALID,0,VALID,24.3636,VALID,1,VALID,0.361719,
2011-05-20, 02:37:05,VALID,1003.74,VALID,0,INVALID,163.731,VALID,0,VALID,24.383,VALID,1,VALID,0.415234,
2011-05-20, 02:38:05,VALID,1003.68,VALID,0,INVALID,163.708,VALID,0,VALID,24.3617,VALID,1,VALID,0.310547,
2011-05-20, 02:39:05,VALID,1003.68,VALID,0,INVALID,163.693,VALID,0.100563,VALID,24.3617,VALID,1,VALID,0.208594,
2011-05-20, 02:40:05,VALID,1003.68,VALID,0,INVALID,163.723,VALID,0,VALID,24.3033,VALID,1,VALID,0.240625,
2011-05-20, 02:41:05,VALID,1003.69,VALID,0,INVALID,163.716,VALID,0,VALID,24.307,VALID,1,VALID,0.0515625,
2011-05-20, 02:42:05,VALID,1003.66,VALID,0,INVALID,163.701,VALID,0.100563,VALID,24.3246,VALID,1,VALID,0.190234,
2011-05-20, 02:43:05,VALID,1003.68,VALID,0,INVALID,163.723,VALID,0,VALID,24.3246,VALID,1,VALID,0.132813,
2011-05-20, 02:44:05,VALID,1003.64,VALID,0,INVALID,163.716,VALID,0.100563,VALID,24.3441,VALID,1,VALID,0.208203,
2011-05-20, 02:45:05,VALID,1003.66,VALID,0,INVALID,163.685,VALID,0,VALID,24.3636,VALID,1,VALID,0.186328,
2011-05-20, 02:46:05,VALID,1003.64,VALID,0,INVALID,163.708,VALID,0,VALID,24.4025,VALID,1,VALID,0.254297,
2011-05-20, 02:47:05,VALID,1003.62,VALID,0,INVALID,163.723,VALID,0,VALID,24.422,VALID,1,VALID,0.364453,
2011-05-20, 02:48:05,VALID,1003.62,VALID,0,INVALID,163.693,VALID,0,VALID,24.4025,VALID,1,VALID,0.277734,
2011-05-20, 02:49:05,VALID,1003.63,VALID,0,INVALID,163.67,VALID,0,VALID,24.4025,VALID,1,VALID,0.303906,
2011-05-20, 02:50:05,VALID,1003.64,VALID,0,INVALID,163.708,VALID,0.100563,VALID,24.383,VALID,1,VALID,0.455859,
2011-05-20, 02:51:04,VALID,1003.65,VALID,0,INVALID,163.746,VALID,0,VALID,24.3441,VALID,1,VALID,0.401172,
2011-05-20, 02:52:04,VALID,1003.63,VALID,0,INVALID,163.716,VALID,0,VALID,24.3246,VALID,1,VALID,0.457422,
2011-05-20, 02:53:04,VALID,1003.63,VALID,0,INVALID,163.716,VALID,0,VALID,24.3052,VALID,1,VALID,0.447656,
2011-05-20, 02:54:04,VALID,1003.62,VALID,0,INVALID,163.723,VALID,0,VALID,24.3246,VALID,1,VALID,0.454688,
2011-05-20, 02:55:04,VALID,1003.62,VALID,0,INVALID,163.708,VALID,0,VALID,24.3246,VALID,1,VALID,0.385938,
2011-05-20, 02:56:04,VALID,1003.6,VALID,0,INVALID,163.708,VALID,0,VALID,24.3441,VALID,1,VALID,0.469922,
2011-05-20, 02:57:04,VALID,1003.6,VALID,0,INVALID,163.723,VALID,0.100563,VALID,24.3636,VALID,1,VALID,0.503516,
2011-05-20, 02:58:04,VALID,1003.61,VALID,0,INVALID,163.716,VALID,0,VALID,24.3636,VALID,1,VALID,0.366797,
2011-05-20, 02:59:04,VALID,1003.6,VALID,0,INVALID,163.708,VALID,0,VALID,24.3441,VALID,1,VALID,0.383984,
2011-05-20, 03:00:04,VALID,1003.66,VALID,0,INVALID,163.708,VALID,0,VALID,24.3441,VALID,1,VALID,0.35625,
2011-05-20, 03:01:04,VALID,1003.63,VALID,0,INVALID,163.701,VALID,0,VALID,24.3441,VALID,1,VALID,0.309766,
2011-05-20, 03:02:04,VALID,1003.66,VALID,0,INVALID,163.701,VALID,0,VALID,24.2857,VALID,1,VALID,0.242578,
2011-05-20, 03:03:04,VALID,1003.65,VALID,0,INVALID,163.716,VALID,0,VALID,24.2857,VALID,1,VALID,0.202344,
2011-05-20, 03:04:04,VALID,1003.64,VALID,0,INVALID,163.701,VALID,0,VALID,24.2839,VALID,1,VALID,0.267188,
2011-05-20, 03:05:04,VALID,1003.6,VALID,0,INVALID,163.708,VALID,0,VALID,24.3636,VALID,1,VALID,0.215625,
2011-05-20, 03:06:04,VALID,1003.59,VALID,0,INVALID,163.701,VALID,0,VALID,24.4414,VALID,1,VALID,0.426172,
2011-05-20, 03:07:04,VALID,1003.57,VALID,0,INVALID,163.708,VALID,0,VALID,24.4414,VALID,1,VALID,0.350781,
2011-05-20, 03:08:04,VALID,1003.54,VALID,0,INVALID,163.701,VALID,0,VALID,24.422,VALID,1,VALID,0.236719,
2011-05-20, 03:09:04,VALID,1003.53,VALID,0,INVALID,163.708,VALID,0,VALID,24.422,VALID,1,VALID,0.282422,
2011-05-20, 03:10:04,VALID,1003.5,VALID,0,INVALID,163.716,VALID,0.100563,VALID,24.383,VALID,1,VALID,0.378516,
2011-05-20, 03:11:04,VALID,1003.48,VALID,0,INVALID,163.701,VALID,0,VALID,24.3636,VALID,1,VALID,0.357422,
2011-05-20, 03:12:04,VALID,1003.5,VALID,0,INVALID,163.716,VALID,0,VALID,24.3636,VALID,1,VALID,0.430469,
2011-05-20, 03:13:04,VALID,1003.48,VALID,0,INVALID,163.723,VALID,0,VALID,24.383,VALID,1,VALID,0.554297,
2011-05-20, 03:14:04,VALID,1003.48,VALID,0,INVALID,163.685,VALID,0,VALID,24.383,VALID,1,VALID,0.453516,
2011-05-20, 03:15:04,VALID,1003.47,VALID,0,INVALID,163.739,VALID,0,VALID,24.3441,VALID,1,VALID,0.351563,
2011-05-20, 03:16:04,VALID,1003.42,VALID,0,INVALID,163.716,VALID,0,VALID,24.3246,VALID,1,VALID,0.202734,
2011-05-20, 03:17:04,VALID,1003.41,VALID,0,INVALID,163.723,VALID,0,VALID,24.3228,VALID,1,VALID,0,
2011-05-20, 03:18:04,VALID,1003.39,VALID,0,INVALID,163.693,VALID,0,VALID,24.3441,VALID,1,VALID,0,
2011-05-20, 03:19:04,VALID,1003.38,VALID,0,INVALID,163.731,VALID,0,VALID,24.383,VALID,1,VALID,0.122656,
2011-05-20, 03:20:04,VALID,1003.36,VALID,0,INVALID,163.693,VALID,0,VALID,24.4006,VALID,360,VALID,0.327344,
2011-05-20, 03:21:04,VALID,1003.37,VALID,0,INVALID,163.708,VALID,0,VALID,24.4414,VALID,360,VALID,0,
2011-05-20, 03:22:04,VALID,1003.38,VALID,0,INVALID,163.708,VALID,0.100563,VALID,24.4414,VALID,360,VALID,0,
2011-05-20, 03:23:04,VALID,1003.38,VALID,0,INVALID,163.701,VALID,0,VALID,24.4238,VALID,360,VALID,0,
2011-05-20, 03:24:04,VALID,1003.39,VALID,0,INVALID,163.693,VALID,0,VALID,24.383,VALID,360,VALID,0,
2011-05-20, 03:25:04,VALID,1003.41,VALID,0,INVALID,163.693,VALID,0,VALID,24.383,VALID,360,VALID,0,
2011-05-20, 03:26:04,VALID,1003.41,VALID,0,INVALID,163.678,VALID,0,VALID,24.3636,VALID,360,VALID,0,
2011-05-20, 03:27:04,VALID,1003.41,VALID,0,INVALID,163.678,VALID,0,VALID,24.3441,VALID,360,VALID,0,
2011-05-20, 03:28:04,VALID,1003.42,VALID,0,INVALID,163.723,VALID,0,VALID,24.3228,VALID,360,VALID,0,
2011-05-20, 03:29:04,VALID,1003.45,VALID,0,INVALID,163.716,VALID,0,VALID,24.3246,VALID,360,VALID,0,
2011-05-20, 03:30:04,VALID,1003.46,VALID,0,INVALID,163.723,VALID,0,VALID,24.3246,VALID,360,VALID,0,
2011-05-20, 03:31:04,VALID,1003.51,VALID,0,INVALID,163.701,VALID,0,VALID,24.3246,VALID,360,VALID,0,
2011-05-20, 03:32:04,VALID,1003.52,VALID,0,INVALID,163.716,VALID,0,VALID,24.3246,VALID,360,VALID,0,
2011-05-20, 03:33:04,VALID,1003.53,VALID,0,INVALID,163.708,VALID,0,VALID,24.3246,VALID,1,VALID,0,
2011-05-20, 03:34:04,VALID,1003.6,VALID,0,INVALID,163.716,VALID,0,VALID,24.3052,VALID,1,VALID,0,
2011-05-20, 03:35:04,VALID,1003.62,VALID,0,INVALID,163.708,VALID,0,VALID,24.2857,VALID,1,VALID,0,
2011-05-20, 03:36:04,VALID,1003.67,VALID,0,INVALID,163.716,VALID,0,VALID,24.3052,VALID,1,VALID,0.236719,
2011-05-20, 03:37:04,VALID,1003.65,VALID,0,INVALID,163.701,VALID,0,VALID,24.3033,VALID,1,VALID,0.676953,
2011-05-20, 03:38:04,VALID,1003.69,VALID,0,INVALID,163.739,VALID,0,VALID,24.3441,VALID,1,VALID,0.407031,
2011-05-20, 03:39:04,VALID,1003.73,VALID,0,INVALID,163.723,VALID,0.100563,VALID,24.3441,VALID,1,VALID,0.489453,
2011-05-20, 03:40:04,VALID,1003.71,VALID,0,INVALID,163.731,VALID,0.100563,VALID,24.3246,VALID,1,VALID,0.366797,
2011-05-20, 03:41:04,VALID,1003.71,VALID,0,INVALID,163.701,VALID,0,VALID,24.2857,VALID,1,VALID,0.259375,
2011-05-20, 03:42:04,VALID,1003.73,VALID,0,INVALID,163.739,VALID,0,VALID,24.2662,VALID,1,VALID,0.24375,